Location: Clanezzo
(45.7500°N, 9.6000°E)
Time: 07:57:58
(UTC+00:00)

Gbstr 26 Del rocket - Pass Details

Date: 29 September 2021
Orbit: 492 x 1263 km, 51.8° (Epoch: 18 October)

Event Time Altitude Azimuth Distance (km) Brightness Sun altitude
Rises 20:56:49 0° 267° (W) 3,986 7.7 -37.9°
Reaches altitude 10° 20:59:32 10° 271° (W) 3,102 7.0 -38.2°
Enters shadow 21:06:24 57° 326° (NW) 1,454 4.9 -39.0°
